Regional Weather Roundup
Issued by NWS Cleveland, OH

Home | Current Version | Previous Version | Graphics & Text | Print | Product List | Glossary On
Versions: 1 2 3 4 5 6 7 8 9 10 11 12 13 14 15 16 17 18 19 20 21 22 23 24 25 26 27 28 29 30 31 32 33 34 35 36 37 38 39 40 41 42 43 44 45 46 47 48 49 50
000
ASUS41 KCLE 211700
RWRCLE
OHIO REGIONAL WEATHER ROUNDUP
NATIONAL WEATHER SERVICE WILMINGTON, OH
100 PM EDT THU AUG 21 2014

NOTE: "FAIR" INDICATES FEW OR NO CLOUDS BELOW 12,000 FEET WITH NO
SIGNIFICANT WEATHER AND/OR OBSTRUCTIONS TO VISIBILITY.

OHZ001>008-015>018-024>027-034-035-043-044-211800-
   NORTHWEST OHIO

CITY           SKY/WX    TMP DP  RH WIND       PRES   REMARKS
DEFIANCE       CLOUDY    76  69  79 SW7       30.01F
FINDLAY        CLOUDY    75  69  81 SW14      30.04R
TOLEDO EXPRESS NOT AVBL
TOLEDO METCALF CLOUDY    80  68  66 W14       30.02S
LIMA           LGT RAIN  71  69  93 S7        30.06F FOG
$$

OHZ009>014-019>023-028>033-038-089-211800-
   NORTHEAST OHIO

CITY           SKY/WX    TMP DP  RH WIND       PRES   REMARKS
CLE-HOPKINS    PTSUNNY   78  70  76 W9        30.03F
CLE-LAKEFRONT  MOSUNNY   76  70  82 W7        30.00S
CUY CO. ARPT   NOT AVBL
LORAIN-ELYRIA  PTSUNNY   82  71  69 SW12      30.03S
ASHTABULA      PTSUNNY   79  67  66 S6        30.02F
AKRON-CANTON   CLOUDY    79  69  71 SW8       30.04F
WOOSTER        NOT AVBL
MANSFIELD      CLOUDY    76  67  73 SW10      30.08R
YOUNGSTOWN     PTSUNNY   80  68  66 SW9       30.03F
$$

OHZ042-051>053-060>062-070>072-077>081-211800-
  SOUTHWEST OHIO

CITY           SKY/WX    TMP DP  RH WIND       PRES   REMARKS
CINC-COVINGTON CLOUDY    74  71  91 SW3       30.10R
CINC-LUNKEN    LGT RAIN  72  71  97 E6        30.09R FOG
HAMILTON       LGT RAIN  72  71  97 NE3       30.10S FOG
DAYTON         RAIN      72  70  94 SW8       30.11F FOG
WRIGHT-PAT AFB NOT AVBL
DAYTON GENERAL RAIN      71  69  93 CALM      30.10F FOG
WILMINGTON     TSTM      70  67  90 W9        30.12S FOG
$$

OHZ036-037-039>041-045>050-054>059-063>069-073>076-082>088-211800-
  CENTRAL AND SOUTHEAST OHIO

CITY           SKY/WX    TMP DP  RH WIND       PRES   REMARKS
COLUMBUS       LGT RAIN  73  69  87 W3        30.10S FOG
OSU AIRPORT    RAIN      71  69  93 W3        30.11R FOG
BOLTON FIELD   NOT AVBL
RICKENBACK AFB NOT AVBL
NEWARK         RAIN      72  68  87 SW7       30.10R FOG
MARION         LGT RAIN  71  67  87 SW6       30.08S FOG
LANCASTER      LGT RAIN  72  69  90 W3        30.12R FOG
ZANESVILLE     CLOUDY    72  69  90 SW7       30.10R
NEW PHILLY     CLOUDY    76  70  82 W5        30.06S
$$


USA.gov is the U.S. government's official web portal to all federal, state and local government web resources and services.